User: anonymous   Login
Location: Unspecified
(0.0000°N, 0.0000°E)
Time: 17:52:58
(UTC+00:00)
Language:

WGS F2 (USA 204) - Orbit

View from above orbital plane
View from above orbital plane
View from above satellite
View from above satellite

Ground track
Ground track

The orbit data is extracted from the following two-line orbital elements,

1 34713U 09017A   23274.15300737  .00000057  00000-0  00000+0 0  9990
2 34713   0.0184 177.5619 0000250  68.9033 235.7616  1.00269228 53014
Epoch (UTC): 01 October 2023 03:40:19
Eccentricity: 0.0000250
inclination: 0.0184°
perigee height: 35786 km
apogee height: 35788 km
right ascension of ascending node: 177.5619°
argument of perigee: 68.9033°
revolutions per day: 1.00269228
mean anomaly at epoch: 235.7616°
orbit number at epoch: 5301

The dashed part of the orbit path shows where the satellite is in the earth's shadow,  

DLR